Regional Weather Roundup
Issued by NWS

Home | Current Version | Previous Version | Graphics & Text | Print | Product List | Glossary On
Versions: 1 2 3 4 5 6 7 8 9 10 11 12 13 14 15 16 17 18 19 20 21 22 23 24 25 26 27 28 29 30 31 32 33 34 35 36 37 38 39 40 41 42 43 44 45
000
ASUS43 KDMX 012007
RWRIA

WEATHER ROUNDUP FOR IOWA
NATIONAL WEATHER SERVICE DES MOINES IA
300 PM CDT WED OCT 01 2014

NOTE: "FAIR" INDICATES FEW OR NO CLOUDS BELOW 12,000 FEET WITH NO
SIGNIFICANT WEATHER AND/OR OBSTRUCTIONS TO VISIBILITY.

* - THESE STATIONS ARE NOT NWS STATIONS...THUS NOT UNDER NWS
QUALITY CONTROL.  THEY ALSO DO NOT REPORT WEATHER SUCH
AS PRECIPITATION OR FOG.

IAZ001>003-012>014-020>022-031>034-043>046-012100-
   NORTHWEST IOWA

CITY           SKY/WX    TMP DP  RH WIND       PRES   REMARKS
CARROLL *      PTSUNNY   73  63  68 MISG      29.73F
CHEROKEE *     SUNNY     73  61  64 CALM      29.73F
DENISON *      PTSUNNY   73  63  68 S5        29.72S
LE MARS *      SUNNY     75  57  53 VRB5      29.72F
ORANGE CITY *  MOSUNNY   75  55  50 S6        29.72F
SHELDON *      PTSUNNY   73  59  60 S6G16     29.72F
SIOUX CITY     MOSUNNY   78  58  49 CALM      29.71F
SPENCER        CLOUDY    68  59  73 W5        29.76F
STORM LAKE *   MOSUNNY   73  59  60 CALM      29.75F
$$

IAZ055>058-069>071-079>083-090>094-012100-
   SOUTHWEST IOWA

CITY           SKY/WX    TMP DP  RH WIND       PRES   REMARKS
ATLANTIC *     PTSUNNY   70  66  88 S5        29.73F
AUDUBON *      MOSUNNY   72  63  73 S6        29.75F
CLARINDA *     MOSUNNY   77  64  65 SW5       29.73F
COUNCIL BLFS * SUNNY     72  66  83 SE6       29.72F
CRESTON *      PTSUNNY   70  64  83 S7G14     29.75F
HARLAN  *      SUNNY     73  63  68 S6        29.76F
LAMONI         CLOUDY    66  63  90 VRB7      29.75F
RED OAK *      CLOUDY    72  66  83 CALM      29.73F
SHENANDOAH *   MOSUNNY   75  66  73 S5        29.73F
$$

IAZ047>049-059>061-072>074-084-012100-
   CENTRAL IOWA

CITY           SKY/WX    TMP DP  RH WIND       PRES   REMARKS
AMES           CLOUDY    68  63  84 S7        29.76F
ANKENY *       CLOUDY    70  63  78 S7        29.75F
CHARITON *     CLOUDY    70  64  83 S10       29.75F
DES MOINES     CLOUDY    70  62  76 S6        29.75F
GRINNELL*      CLOUDY    70  61  73 S9        29.79S
KNOXVILLE *    CLOUDY    68  63  83 SE7       29.75F
MARSHALLTOWN   CLOUDY    69  61  75 S8        29.77S
PELLA *        CLOUDY    70  63  78 S10G16    29.77F
PERRY *        CLOUDY    68  64  88 CALM      29.75F
$$

IAZ004>006-015-016-023>025-035-036-012100-
   NORTH CENTRAL IOWA

CITY           SKY/WX    TMP DP  RH WIND       PRES   REMARKS
ALGONA *       PTSUNNY   70  63  78 S10       29.75S
CLARION *      CLOUDY    64  63  94 S9        29.77F
ESTHERVILLE    PTSUNNY   66  59  78 VRB5      29.75S
FORT DODGE *   CLOUDY    68  63  83 SE10      29.76F
MASON CITY     CLOUDY    60  58  92 S8        29.80F FOG
FOREST CITY *  CLOUDY    61  61 100 SE10      29.77F
IOWA FALLS *   CLOUDY    66  61  82 S5        29.79F
$$

IAZ007>011-017>019-026>030-037>042-050>054-066-012100-
   NORTHEAST IOWA

CITY           SKY/WX    TMP DP  RH WIND       PRES   REMARKS
CHARLES CITY * CLOUDY    61  55  82 VRB5      29.81S
CLINTON *      CLOUDY    70  57  64 SE10      29.84F
DECORAH *      PTSUNNY   66  54  63 S9G18     29.80F
MONTICELLO *   CLOUDY    70  57  64 S14       29.82F
OELWEIN *      SUNNY     72  57  60 S10G20    29.80F
WATERLOO       PTSUNNY   70  59  68 S10       29.77F
$$

IAZ064-065-067-068-078-012100-
   EAST CENTRAL IOWA

CITY           SKY/WX    TMP DP  RH WIND       PRES   REMARKS
IOWA CITY      CLOUDY    65  60  84 SE8       29.83F
MT. PLEASANT * CLOUDY    64  61  88 S12       29.84R
MUSCATINE *    SUNNY     70  59  68 S14       29.82R
QUAD CITIES    CLOUDY    72  56  57 S15G24    29.81F
$$

IAZ062-063-075>077-085>089-095>099-012100-
   SOUTHEAST IOWA

CITY           SKY/WX    TMP DP  RH WIND       PRES   REMARKS
BURLINGTON     LGT RAIN  64  62  93 S10       29.82F
FAIRFIELD *    LGT RAIN N/A N/A N/A S10       29.80F
FORT MADISON * CLOUDY    66  63  88 S8        29.82F
KEOKUK *       PTSUNNY   64  63  94 S6G12     29.83S
OSKALOOSA *    PTSUNNY   68  63  83 S13       29.77F
CENTERVILLE *  PTSUNNY   66  66 100 SE9G17    29.78F
OTTUMWA        PTSUNNY   66  62  87 S15G21    29.75F
WASHINGTON *   PTSUNNY   63  61  94 S13       29.81F
$$

ABBREVIATIONS USED IN REMARKS
   TC - TEMPERATURES IN CELSIUS
  WCI - WIND CHILL INDEX
   HX - HEAT INDEX
  VSB - VISIBILITY
$$



USA.gov is the U.S. government's official web portal to all federal, state and local government web resources and services.